Location: ?????????
(54.7630°N, 39.4991°E)
Time: 02:24:07
(UTC+00:00)

Cosmos 2219 Rocket - Pass Details

Date: 14 April 2026
Orbit: 826 x 846 km, 71.0° (Epoch: 20 May)

Event Time Altitude Azimuth Distance (km) Brightness Sun altitude
Rises 23:44:41 0° 324° (NW) 3,386 5.6 -19.0°
Reaches altitude 10° 23:47:23 10° 335° (NNW) 2,452 4.9 -18.7°
Maximum altitude 23:52:26 33° 38° (NE) 1,380 4.0 -18.3°
Drops below altitude 10° 23:57:29 10° 102° (ESE) 2,455 5.0 -17.8°
Sets 00:00:11 0° 112° (ESE) 3,389 5.6 -17.5°
